Location: ???? ????
(41.4149°N, 22.8816°E)
Time: 01:19:16
(UTC+00:00)

Daily predictions for brighter satellites

Satellite Brightness Start Highest point End
(mag) Time Altitude Azimuth Time Altitude Azimuth Time Altitude Azimuth
Cosmos 1980 Rocket 4.4 00:02:09 10° N 00:06:43 24° NE 00:11:14 10° ESE
Spot 1 4.3 00:09:48 60° WSW 00:10:04 61° WSW 00:14:45 10° NNW
SL-8 R/B 4.0 00:08:40 42° W 00:10:04 62° NNW 00:14:51 10° ENE
Cosmos 2016 Rocket 4.0 00:09:03 44° S 00:11:08 79° E 00:17:22 10° N
Cosmos 2242 Rocket 4.2 00:07:22 10° NNW 00:11:24 42° W 00:11:24 42° W
IRAS Rocket 4.1 00:11:58 54° SSW 00:13:06 69° WSW 00:18:36 10° NNW
SL-16 R/B 2.5 00:11:55 37° SSE 00:14:36 89° WSW 00:20:54 10° NNW
Lacrosse 5 3.9 00:10:51 10° WNW 00:14:51 23° NNW 00:18:51 10° NNE
Meteor 1-5 Rocket 4.4 00:13:46 43° SSE 00:15:37 69° E 00:21:25 10° NNE
Cosmos 1864 Rocket 4.5 00:17:41 40° S 00:20:02 77° E 00:26:10 10° N
Meteor 2-9 4.5 00:19:51 52° SSW 00:21:13 85° W 00:26:39 10° N
Okean 3 3.9 00:17:05 10° N 00:21:13 56° E 00:22:19 42° SE
BREEZE-M DEB (TANK) 4.0 00:16:33 10° W 00:22:40 46° N 00:25:38 10° ENE
Meteor 1-11 Rocket 4.1 00:21:41 33° SSE 00:23:57 55° E 00:29:19 10° NNE
Meteor 2-4 Rocket 3.7 00:18:08 10° N 00:24:06 88° WSW 00:26:29 38° S
MOZ.5/SAFIR/RUBIN 5/SL-8 4.0 00:25:51 49° WSW 00:26:09 50° W 00:30:49 10° NNW
Cosmos 1190 Rocket 3.9 00:26:21 51° SW 00:27:39 76° WNW 00:32:54 10° NNE
Cosmos 1869 Rocket 3.6 00:27:34 55° W 00:27:53 57° W 00:32:10 10° N
Cosmos 1536 3.7 00:27:10 36° SE 00:28:08 43° E 00:32:00 10° NNE
Cosmos 1954 Rocket 4.2 00:28:05 42° S 00:29:44 65° ESE 00:35:00 10° NNE
Cosmos 1697 Rocket 2.9 00:29:41 10° NNW 00:35:18 68° ENE 00:40:41 11° SSE
Cosmos 921 Rocket 4.2 00:32:42 10° N 00:36:52 41° ENE 00:40:28 13° SE
Cosmos 1437 Rocket 2.8 00:34:00 10° NNW 00:37:57 58° W 00:38:00 58° W
Cosmos 2221 Rocket 3.6 00:36:02 10° N 00:40:28 80° E 00:42:00 40° SSE
Cosmos 2082 Rocket 2.4 00:40:40 35° S 00:43:03 68° ESE 00:48:44 10° NNE
SeaSat 1 2.5 00:38:27 10° NNE 00:43:22 71° WNW 00:45:02 41° SW
Aureole 1 Rocket 3.4 00:43:26 47° SW 00:44:44 71° WNW 00:50:32 10° NNE
Cosmos 1816 Rocket 4.5 00:39:20 10° N 00:45:44 79° W 00:49:18 28° S
Cosmos 1833 Rocket 2.7 00:44:54 38° SW 00:47:00 68° WNW 00:52:37 10° NNE
IRS-1D 3.4 00:42:04 10° NNE 00:47:02 82° ESE 00:49:02 37° S
CZ-2D R/B 2.6 00:42:05 10° N 00:47:14 49° WNW 00:49:08 34° WSW
CZ-4B R/B 3.4 00:42:27 10° N 00:47:30 78° WNW 00:49:15 41° SSW
COBE Rocket 4.3 00:44:24 18° SSE 00:48:05 63° ENE 00:52:56 10° N
COSMOS 2406 3.9 00:49:39 29° WSW 00:52:04 43° WNW 00:57:33 10° NNE
Cosmos 1900 4.3 00:50:30 41° SSW 00:52:12 82° ESE 00:57:11 10° NNE
Cosmos 1140 Rocket 4.0 00:52:12 33° WSW 00:54:00 47° WNW 00:59:05 10° N
Cosmos 1656 3.9 00:49:48 10° NW 00:54:57 44° WSW 00:56:31 35° SSW
Cosmos 407 Rocket 4.5 00:55:13 26° WSW 00:57:14 35° WNW 01:02:09 10° N
Cosmos 2233 Rocket 3.9 00:55:03 29° S 00:58:29 85° W 01:04:46 10° N
Cosmos 1500 4.4 00:58:26 26° W 00:58:38 26° WNW 01:01:53 10° NNW
CBERS-1 4.0 00:55:11 10° N 01:00:20 77° WNW 01:02:41 33° SSW
Cosmos 2360 4.3 00:56:01 10° NNW 01:01:48 83° ENE 01:07:31 10° SSE
Cosmos 1850 Rocket 4.5 01:06:19 22° S 01:09:38 58° ESE 01:14:53 10° NNE
Cosmos 192 4.2 01:06:26 10° NNW 01:11:22 85° WSW 01:15:58 12° SSE
Cosmos 1674 Rocket 3.6 01:07:42 10° N 01:12:03 78° E 01:15:15 18° SSE
Cosmos 1666 3.3 01:13:11 35° WSW 01:13:59 40° WNW 01:17:33 10° N
Cosmos 1066 Rocket 4.3 01:08:40 10° N 01:14:34 87° E 01:20:21 10° S
Meteor 1-13 Rocket 4.5 01:10:03 10° NNW 01:15:35 50° W 01:18:39 25° SSW
ARIANE 5 R/B 2.6 01:14:22 10° NNE 01:19:28 75° ESE 01:23:10 19° S
IRS-1C 4.1 01:14:08 10° NNE 01:19:29 83° WNW 01:22:56 23° SSW
ADEOS II 2.3 01:20:24 10° N 01:25:32 54° WNW 01:28:37 23° SW
Cosmos 1818 4.5 01:20:48 10° NNW 01:26:09 52° NE 01:31:26 10° SE
SL-08 R/B 3.2 01:22:19 12° S 01:26:40 81° WSW 01:31:32 10° NNW
CENTAUR R/B 4.3 01:22:29 10° SSE 01:26:47 22° ESE 01:31:34 10° ENE
Cosmos 1741 Rocket 4.0 01:23:57 21° SSW 01:27:27 80° ESE 01:32:41 10° NNE
Cosmos 1544 4.2 01:25:41 12° SSE 01:28:40 39° E 01:32:02 10° NNE
Resurs 1-4 Rocket 3.7 01:25:47 10° NNW 01:29:39 21° WNW 01:32:21 14° W
Cosmos 1743 2.6 01:27:28 23° S 01:29:43 87° E 01:33:34 10° N
Cosmos 1733 Rocket 3.8 01:29:33 25° WSW 01:31:20 36° WNW 01:35:21 10° N
Spot 4 Rocket 4.3 01:26:19 10° NNE 01:31:29 69° ESE 01:36:00 13° S
Cosmos 1908 Rocket 3.6 01:28:46 18° S 01:32:03 82° E 01:36:33 10° N
ISS -2.0 01:31:41 10° NW 01:34:49 36° NNE 01:37:57 10° E
Abrixas rocket 2.6 01:37:44 10° NW 01:40:34 54° NNE 01:43:25 10° ESE
ATLAS 5 CENTAUR R/B 2.4 01:39:34 10° NW 01:45:27 86° SW 01:52:13 10° SSE
Gbstr 26 Del rocket 3.2 01:43:09 10° NW 01:47:33 87° SW 01:52:58 10° SE
Aureole 2 4.4 01:46:46 25° SW 01:48:10 47° WNW 01:51:01 10° N
Cosmos 1242 Rocket 2.4 01:45:37 10° NNW 01:49:04 67° W 01:52:28 10° S
Cosmos 2369 4.4 01:45:01 10° NW 01:50:02 32° WSW 01:54:58 10° SSW
Cosmos 1980 Rocket 2.3 01:45:30 10° NNW 01:51:03 55° WSW 01:56:33 10° S
CSL-04 DEB 4.3 01:49:22 10° S 01:53:32 77° WSW 01:57:36 10° NNW
Cosmos 1378 3.5 01:54:47 10° NNW 01:58:23 45° W 02:01:47 11° SSW
SL-16 R/B 4.2 01:57:01 11° WSW 01:58:59 13° W 02:01:46 10° WNW
IDEFIX/ARIANE 42P 2.6 01:56:03 10° N 02:01:15 76° WNW 02:06:24 10° SSW
Cosmos 1975 Rocket 3.4 01:58:55 10° N 02:03:22 71° E 02:07:47 10° SSE
Cosmos 1464 Rocket 4.1 01:59:44 10° SSW 02:06:04 68° W 02:12:26 10° N
H-2A R/B 2.0 02:03:31 10° S 02:07:55 74° WSW 02:12:15 10° NNW
MSX 3.9 02:02:34 10° NNE 02:08:20 85° ESE 02:14:05 10° SSW
PSLV R/B 4.4 02:05:44 10° NNE 02:09:57 50° E 02:14:11 10° S
Cosmos 2278 4.4 02:05:28 10° NW 02:10:30 33° WSW 02:15:30 10° SSW
Cosmos 1867 3.7 02:07:16 10° SSW 02:12:38 80° ESE 02:18:07 10° NE
Cosmos 2208 Rocket 4.3 02:07:44 10° NNW 02:13:09 75° ENE 02:18:27 10° SSE
SL-16 R/B 2.7 02:07:54 10° NNW 02:13:35 68° ENE 02:19:13 10° SSE
CZ-4B R/B 3.7 02:10:39 10° SE 02:13:42 30° ENE 02:16:48 10° N
Cosmos 1975 2.9 02:10:09 10° SSW 02:14:04 58° W 02:18:00 10° N
NOSS 3-2 (C) 3.9 02:09:25 10° SSW 02:14:51 56° ESE 02:21:00 10° NE
Okean 2 Rocket 3.9 02:12:20 10° SSE 02:16:34 50° E 02:20:50 10° NNE
Cosmos 2034 Rocket 4.0 02:10:39 10° S 02:16:47 78° W 02:22:59 10° N
CZ-2C R/B 3.1 02:13:56 10° N 02:17:55 56° WNW 02:21:51 10° SSW
Cosmos 1697 Rocket 4.2 02:15:16 10° WNW 02:18:36 16° W 02:21:56 10° SW
CZ-2C R/B 3.0 02:17:36 10° NNE 02:22:17 55° E 02:26:48 10° S
Cosmos 1814 Rocket 4.1 02:17:10 10° NNW 02:22:20 82° ENE 02:27:29 10° SSE
OE (NEXTSAT) 4.3 02:20:23 10° WSW 02:23:51 83° NNW 02:27:19 10° ENE
SL-27 R/B 2.8 02:20:50 10° SW 02:24:16 50° WNW 02:27:39 10° N
Cosmos 1842 3.4 02:21:25 10° NNW 02:25:19 58° W 02:29:11 10° S
CZ-4C R/B 3.3 02:22:49 10° S 02:25:52 38° W 02:28:53 10° NNW
NOSS 3-2 (A) 3.4 02:21:36 10° SW 02:27:13 75° NW 02:33:39 10° NNE
Cosmos 2082 Rocket 3.9 02:23:31 10° W 02:27:40 20° NW 02:31:51 10° N
Cosmos 1763 Rocket 4.2 02:27:35 10° NW 02:32:18 34° W 02:37:02 10° SSW
ERS-2 2.8 02:29:00 10° SSW 02:32:20 34° W 02:35:42 10° NNW
